| time (UTC) | temp C | wind direction | speed KPH | gust KPH | rain 1hr cm | rain 24hr cm | rain mn cm | humidity % | barometer mb |
| 20260906103101 | 18 | 251 | 1.6 | 6.4 | 0.00 | 0.20 | 0.00 | 68 | 988.6 |
| 20260906100039 | 17 | 270 | 1.6 | 3.2 | 0.00 | 0.28 | 0.00 | 72 | 988.6 |
| 20260906094528 | 17 | 266 | 1.6 | 6.4 | 0.00 | 0.38 | 0.00 | 74 | 988.3 |
| 20260906093018 | 16 | 248 | 0.0 | 3.2 | 0.00 | 0.46 | 0.00 | 79 | 988.2 |
| 20260906091614 | 16 | 248 | 1.6 | 6.4 | 0.00 | 0.48 | 0.00 | 80 | 988.3 |
| 20260906084525 | 16 | 263 | 0.0 | 3.2 | 0.00 | 0.53 | 0.00 | 80 | 988.0 |
| 20260906081604 | 16 | 244 | 1.6 | 6.4 | 0.00 | 0.53 | 0.00 | 80 | 988.0 |
| 20260906074543 | 13 | 274 | 3.2 | 11.3 | 0.00 | 0.69 | 0.00 | 89 | 988.0 |
| 20260906073038 | 13 | 275 | 1.6 | 6.4 | 0.00 | 0.81 | 0.00 | 92 | 987.9 |
| 20260906071527 | 13 | 262 | 1.6 | 3.2 | 0.00 | 1.04 | 0.00 | 92 | 987.9 |
| 20260906070017 | 13 | 250 | 1.6 | 6.4 | 0.00 | 1.14 | 0.00 | 93 | 987.8 |
| 20260906064606 | 12 | 286 | 0.0 | 6.4 | 0.00 | 1.27 | 0.00 | 95 | 987.8 |
| 20260906063102 | 12 | 293 | 0.0 | 3.2 | 0.00 | 1.42 | 0.00 | 97 | 987.6 |
| 20260906061550 | 11 | 279 | 1.6 | 6.4 | 0.00 | 1.55 | 0.00 | 99 | 987.4 |
| 20260906060040 | 11 | 270 | 0.0 | 3.2 | 0.00 | 1.70 | 0.00 | 99 | 987.4 |
| 20260906054529 | 11 | 286 | 1.6 | 6.4 | 0.00 | 1.85 | 0.00 | 99 | 987.4 |
| 20260906053018 | 11 | 270 | 0.0 | 3.2 | 0.00 | 1.93 | 0.00 | 99 | 987.3 |
| 20260906051614 | 10 | 225 | 1.6 | 6.4 | 0.00 | 2.03 | 0.00 | 99 | 987.4 |
| 20260906050030 | 10 | 283 | 1.6 | 3.2 | 0.00 | 2.06 | 0.00 | 99 | 987.2 |
| 20260906041605 | 10 | 248 | 0.0 | 6.4 | 0.00 | 2.16 | 0.00 | 99 | 987.2 |
| 20260906034543 | 10 | 259 | 0.0 | 3.2 | 0.00 | 2.29 | 0.00 | 99 | 987.1 |
| 20260906033038 | 10 | 270 | 0.0 | 6.4 | 0.00 | 2.29 | 0.00 | 99 | 986.9 |
| 20260906031529 | 9 | 220 | 1.6 | 3.2 | 0.00 | 2.31 | 0.00 | 99 | 986.9 |
| 20260906030016 | 9 | 270 | 0.0 | 3.2 | 0.00 | 2.34 | 0.00 | 99 | 986.7 |
| 20260906024606 | 9 | 248 | 0.0 | 3.2 | 0.00 | 2.34 | 0.00 | 99 | 986.6 |
| 20260906023101 | 9 | 248 | 0.0 | 3.2 | 0.00 | 2.34 | 0.00 | 99 | 986.4 |
| 20260906021551 | 9 | 248 | 0.0 | 3.2 | 0.00 | 2.34 | 0.00 | 99 | 986.3 |
| 20260906020040 | 8 | 248 | 0.0 | 3.2 | 0.00 | 2.36 | 0.00 | 99 | 986.5 |
| 20260906014529 | 8 | 270 | 0.0 | 3.2 | 0.00 | 2.36 | 0.00 | 99 | 986.4 |
| 20260906013018 | 8 | 270 | 0.0 | 0.0 | 0.00 | 2.39 | 0.00 | 99 | 986.4 |
| 20260906011614 | 8 | 270 | 0.0 | 0.0 | 0.00 | 2.39 | 0.00 | 99 | 986.3 |
| 20260906004526 | 7 | 270 | 0.0 | 0.0 | 0.00 | 2.39 | 0.00 | 99 | 986.1 |
| 20260906003115 | 7 | 270 | 0.0 | 0.0 | 0.00 | 2.39 | 0.00 | 99 | 986.1 |
| 20260906001604 | 7 | 270 | 0.0 | 0.0 | 0.00 | 2.39 | 0.00 | 99 | 985.9 |
| 20260906000054 | 7 | 270 | 0.0 | 0.0 | 0.00 | 2.39 | 0.00 | 99 | 986.0 |
| 20260905233038 | 8 | 270 | 0.0 | 0.0 | 0.00 | 2.39 | 0.00 | 99 | 985.8 |
| 20260905231527 | 8 | 270 | 0.0 | 0.0 | 0.00 | 2.39 | 0.00 | 99 | 985.9 |
| 20260905230017 | 8 | 270 | 0.0 | 0.0 | 0.00 | 2.39 | 0.00 | 99 | 985.8 |
| 20260905224607 | 8 | 270 | 0.0 | 3.2 | 0.00 | 2.39 | 0.00 | 99 | 985.8 |
| 20260905223101 | 9 | 270 | 0.0 | 3.2 | 0.00 | 2.39 | 0.00 | 99 | 985.6 |
| 20260905221551 | 9 | 270 | 0.0 | 0.0 | 0.00 | 2.39 | 0.00 | 99 | 985.6 |
| 20260905220039 | 9 | 270 | 0.0 | 3.2 | 0.00 | 2.39 | 0.00 | 99 | 985.7 |
| 20260905214530 | 9 | 276 | 0.0 | 3.2 | 0.00 | 2.39 | 0.00 | 99 | 985.5 |
| 20260905213019 | 10 | 270 | 0.0 | 3.2 | 0.00 | 2.39 | 0.00 | 99 | 985.4 |
| 20260905211614 | 10 | 270 | 0.0 | 3.2 | 0.00 | 2.39 | 0.00 | 99 | 985.3 |
| 20260905210031 | 10 | 270 | 0.0 | 3.2 | 0.00 | 2.39 | 0.00 | 99 | 985.3 |
| 20260905204525 | 10 | 270 | 0.0 | 3.2 | 0.00 | 2.39 | 2.39 | 98 | 985.2 |
| 20260905203115 | 11 | 237 | 1.6 | 6.4 | 0.00 | 2.39 | 2.39 | 98 | 985.2 |
| 20260905201606 | 11 | 277 | 1.6 | 3.2 | 0.00 | 2.39 | 2.39 | 97 | 985.0 |
| 20260905200053 | 11 | 274 | 1.6 | 9.7 | 0.00 | 2.39 | 2.39 | 97 | 984.9 |
| 20260905194543 | 11 | 243 | 1.6 | 3.2 | 0.00 | 2.39 | 2.39 | 96 | 984.8 |
| 20260905193039 | 12 | 278 | 1.6 | 3.2 | 0.00 | 2.39 | 2.39 | 95 | 984.8 |
| 20260905191528 | 12 | 265 | 1.6 | 6.4 | 0.00 | 2.39 | 2.39 | 95 | 984.6 |
| 20260905184607 | 12 | 272 | 1.6 | 6.4 | 0.00 | 2.39 | 2.39 | 95 | 984.2 |
| 20260905183102 | 12 | 274 | 3.2 | 6.4 | 0.00 | 2.39 | 2.39 | 95 | 983.9 |
| 20260905181551 | 12 | 282 | 1.6 | 6.4 | 0.00 | 2.39 | 2.39 | 96 | 983.7 |
| 20260905180040 | 13 | 268 | 1.6 | 6.4 | 0.00 | 2.39 | 2.39 | 97 | 983.4 |
| 20260905174529 | 13 | 262 | 4.8 | 11.3 | 0.00 | 2.39 | 2.39 | 97 | 983.2 |
| 20260905173019 | 13 | 252 | 3.2 | 9.7 | 0.00 | 2.39 | 2.39 | 97 | 982.8 |
| 20260905171616 | 13 | 225 | 1.6 | 3.2 | 0.00 | 2.39 | 2.39 | 97 | 982.6 |
| 20260905170538 | 13 | 263 | 1.6 | 6.4 | 0.00 | 2.39 | 2.39 | 98 | 982.5 |
| 20260905165028 | 12 | 264 | 1.6 | 6.4 | 0.00 | 2.39 | 2.39 | 97 | 982.3 |
| 20260905163517 | 12 | 249 | 3.2 | 12.9 | 0.00 | 2.39 | 2.39 | 98 | 982.0 |
| 20260905162112 | 12 | 245 | 3.2 | 6.4 | 0.00 | 2.39 | 2.39 | 98 | 981.8 |
| 20260905160602 | 12 | 270 | 1.6 | 3.2 | 0.03 | 2.39 | 2.39 | 98 | 981.8 |
| 20260905155051 | 12 | 264 | 3.2 | 6.4 | 0.03 | 2.39 | 2.39 | 97 | 981.5 |
| 20260905153540 | 12 | 277 | 4.8 | 17.7 | 0.03 | 2.39 | 2.39 | 97 | 981.4 |
| 20260905152035 | 13 | 249 | 4.8 | 11.3 | 0.03 | 2.39 | 2.39 | 97 | 981.1 |
| 20260905150524 | 13 | 283 | 8.0 | 24.1 | 0.00 | 2.36 | 2.36 | 92 | 980.8 |
| 20260905145114 | 14 | 269 | 4.8 | 14.5 | 0.00 | 2.36 | 2.36 | 91 | 980.5 |
| 20260905143603 | 15 | 251 | 4.8 | 17.7 | 0.00 | 2.36 | 2.36 | 90 | 980.2 |
| 20260905142052 | 14 | 263 | 4.8 | 14.5 | 0.00 | 2.36 | 2.36 | 94 | 980.0 |
| 20260905141550 | 14 | 203 | 3.2 | 6.4 | 0.18 | 2.36 | 2.36 | 94 | 980.0 |
| 20260905134530 | 14 | 263 | 4.8 | 14.5 | 0.18 | 2.36 | 2.36 | 98 | 979.2 |
| 20260905133019 | 14 | 240 | 3.2 | 12.9 | 0.18 | 2.36 | 2.36 | 99 | 978.9 |
| 20260905131615 | 14 | 253 | 1.6 | 6.4 | 0.18 | 2.36 | 2.36 | 98 | 978.7 |
| 20260905130031 | 15 | 292 | 4.8 | 17.7 | 0.00 | 2.18 | 2.18 | 94 | 978.1 |
| 20260905124526 | 16 | 253 | 4.8 | 11.3 | 0.00 | 2.18 | 2.18 | 89 | 977.7 |
| 20260905123116 | 16 | 265 | 4.8 | 9.7 | 0.00 | 2.18 | 2.18 | 88 | 977.6 |
| 20260905121605 | 17 | 269 | 3.2 | 12.9 | 0.00 | 2.18 | 2.18 | 88 | 977.2 |
| 20260905114543 | 15 | 280 | 8.0 | 22.5 | 0.00 | 2.18 | 2.18 | 97 | 976.4 |
| 20260905113039 | 15 | 239 | 6.4 | 14.5 | 0.00 | 2.18 | 2.18 | 99 | 975.2 |
| 20260905111528 | 15 | 264 | 6.4 | 17.7 | 0.03 | 2.18 | 2.18 | 99 | 974.3 |
| 20260905110017 | 15 | 247 | 4.8 | 12.9 | 0.05 | 2.18 | 2.18 | 99 | 973.8 |
| 20260905104607 | 15 | 255 | 3.2 | 9.7 | 0.18 | 2.18 | 2.18 | 99 | 973.4 |